{"data":{"norad_id":47754,"intl_designator":"2021-017AJ","name":"STARLINK-2171","alt_names":[],"object_type":"PAYLOAD","status":"ACTIVE","operator":null,"country":"US","launch_date":"2021-03-04","launch_site_code":"AFETR","launch_vehicle":null,"mission":null,"orbit_class":"UNKNOWN","rcs_meters":null,"size_class":null,"mass_kg":null,"dimensions":null,"purposes":["comms"],"wikipedia_slug":null,"has_3d_model":false,"image_url":null,"decayed_at":null,"tle_current":{"epoch":"2026-05-25T06:00:02.000160Z","epoch_age_seconds":46605,"freshness":"FRESH","line1":"1 47754U 21017AJ  26145.25002315  .00379227  71470-4  76065-3 0  9994","line2":"2 47754  53.0329 142.9115 0010060  40.3596  72.6213 15.99125186  5977","mean_motion":15.99125186,"eccentricity":0.001006,"inclination_deg":53.0329,"raan_deg":142.9115,"arg_perigee_deg":40.3596,"mean_anomaly_deg":72.6213,"bstar":0.00076065,"rev_number":597,"period_min":90.04923520728,"perigee_km":270.14979049281,"apogee_km":283.53961367741,"semimajor_km":6654.9817020851,"source":"CELESTRAK","updated_at":"2026-05-25T13:38:16.568776Z"}}}